Flag for U.S.A. Weather past 2 weeks in Modesto, California, U.S.A.

Now
76 °F

Sunny.


Feels Like: 78 °F
Forecast: 65 / 94 °F
Wind: 10 mph from Northwest

Location: Modesto City-County-Sham Field

Current Time: Jul 24, 2014 at 10:54:38 AM

Latest Report: Jul 24, 2014 at 9:53 AM


Visibility: 10 mi

Pressure: 29.96 "Hg

Humidity: 50%

Dew point: 56 °F

Location of ModestoLocation

Historic Weather in Modesto — Graph

°F

Modesto temperature yesterday

Maximum temperature yesterday: 85 °F (at 3:53 PM)
Minimum temperature yesterday: 63 °F (at 3:53 AM)
Average temperature yesterday: 74 °F

Past Weeks' High & Low Weather Summary

 TemperatureHumidityPressure
High98 °F (Jul 13, 4:53 PM)84% (Jul 12, 5:53 AM)30.12 "Hg (Jul 12, 5:53 AM)
Low59 °F (Jul 12, 5:53 AM)21% (Jul 12, 5:53 PM)29.75 "Hg (Jul 9, 6:53 PM)
Average76 °F53%29.92 "Hg
* Reported Jul 9 9:53 AM — Jul 24 9:53 AM, Modesto, Weather by CustomWeather, © 2014

Note: Actual official high and low records may vary slightly from our data, if they occured in-between our weather recording intervals... More about our weather records

Advertising

Modesto weather history for previous 24 hours

 ConditionsComfort  
Time TempWeatherWind HumidityBarometerVisibility
9:53 AM
Jul 24
76 °FSunny.10 mph50%29.96 "Hg10 mi
8:53 AM73 °FSunny.12 mph53%29.98 "Hg10 mi
7:53 AM69 °FSunny.8 mph63%29.98 "Hg10 mi
6:53 AM66 °FClear.9 mph70%29.97 "Hg10 mi
5:53 AM65 °FClear.8 mph76%29.96 "Hg10 mi
4:53 AM65 °FClear.5 mph76%29.96 "Hg10 mi
3:53 AM66 °FClear.3 mph73%29.96 "Hg10 mi
2:53 AM67 °FClear.6 mph71%29.97 "Hg10 mi
1:53 AM67 °FClear.6 mph71%29.98 "Hg10 mi
12:53 AM69 °FClear.8 mph66%29.99 "Hg10 mi
11:53 PM
Jul 23
72 °FClear.8 mph55%29.98 "Hg10 mi
10:53 PM72 °FClear.14 mph55%29.98 "Hg10 mi
9:53 PM75 °FClear.13 mph54%29.98 "Hg10 mi
8:53 PM78 °FSunny.12 mph48%29.97 "Hg10 mi
7:53 PM82 °FSunny.14 mph37%29.96 "Hg10 mi
6:53 PM84 °FSunny.14 mph37%29.96 "Hg10 mi
5:53 PM85 °FSunny.14 mph37%29.98 "Hg10 mi
4:53 PM85 °FSunny.14 mph37%29.99 "Hg10 mi
3:53 PM85 °FSunny.13 mph37%30.01 "Hg10 mi
2:53 PM84 °FSunny.13 mph36%30.04 "Hg10 mi
1:53 PM82 °FSunny.9 mph38%30.07 "Hg10 mi
12:53 PM80 °FSunny.12 mph42%30.09 "Hg10 mi
11:53 AM76 °FSunny.5 mph50%30.11 "Hg10 mi
10:53 AM75 °FSunny.10 mph50%30.11 "Hg10 mi
Weather by CustomWeather, © 2014

See weather overviewHow to use our weather pages